Schneifelwetter: Wetterstation Hallschlag, 537 m . NN
Wetterdaten: Sonntag, 06.11.2011
Datum Zeit Temp. A. Feuchte A. Luftdruck Regen Wind Richtung Richtung Sonnenschein Helligkeit T Regen Taupunkt Windchill
06.11.2011 00:01 4,8 C 94 % 1009 hPa 0,0 l/m 0,0 km/h (0 Bft) SW 220 0 min 0 lux 0 min 3,9 C 4,8 C
06.11.2011 00:16 4,5 C 94 % 1009 hPa 0,0 l/m 0,0 km/h (0 Bft) SW 220 0 min 0 lux 0 min 3,6 C 4,5 C
06.11.2011 00:31 4,1 C 94 % 1009 hPa 0,0 l/m 0,0 km/h (0 Bft) SW 220 0 min 0 lux 0 min 3,2 C 4,1 C
06.11.2011 00:46 4,0 C 95 % 1010 hPa 0,0 l/m 0,0 km/h (0 Bft) SW 220 0 min 0 lux 0 min 3,3 C 4,0 C
06.11.2011 01:01 3,9 C 95 % 1010 hPa 0,0 l/m 0,0 km/h (0 Bft) SW 220 0 min 0 lux 0 min 3,2 C 3,9 C
06.11.2011 01:16 3,9 C 95 % 1009 hPa 0,0 l/m 0,0 km/h (0 Bft) SW 220 0 min 0 lux 0 min 3,2 C 3,9 C
06.11.2011 01:31 3,7 C 95 % 1009 hPa 0,0 l/m 0,0 km/h (0 Bft) SW 220 0 min 0 lux 0 min 3,0 C 3,7 C
06.11.2011 01:46 3,8 C 96 % 1009 hPa 0,0 l/m 0,0 km/h (0 Bft) SW 220 0 min 0 lux 0 min 3,2 C 3,8 C
06.11.2011 02:01 3,9 C 96 % 1010 hPa 0,0 l/m 0,0 km/h (0 Bft) SW 220 0 min 0 lux 0 min 3,3 C 3,9 C
06.11.2011 02:16 4,3 C 96 % 1009 hPa 0,0 l/m 0,0 km/h (0 Bft) SW 220 0 min 0 lux 0 min 3,7 C 4,3 C
06.11.2011 02:31 5,7 C 98 % 1010 hPa 0,0 l/m 0,0 km/h (0 Bft) SW 220 0 min 0 lux 0 min 5,4 C 5,7 C
06.11.2011 02:46 7,9 C 98 % 1010 hPa 0,0 l/m 9,8 km/h (2 Bft) N22.5 360 0 min 0 lux 0 min 7,6 C 5,4 C
06.11.2011 03:01 7,2 C 97 % 1010 hPa 0,0 l/m 0,1 km/h (0 Bft) N-NO 25 0 min 0 lux 0 min 6,8 C 7,2 C
06.11.2011 03:16 7,1 C 97 % 1010 hPa 0,0 l/m 0,0 km/h (0 Bft) N-NO 25 0 min 0 lux 0 min 6,7 C 7,1 C
06.11.2011 03:31 6,7 C 96 % 1010 hPa 0,0 l/m 0,0 km/h (0 Bft) N-NO 25 0 min 0 lux 0 min 6,1 C 6,7 C
06.11.2011 03:46 7,0 C 97 % 1010 hPa 0,0 l/m 6,9 km/h (2 Bft) NW 315 0 min 0 lux 0 min 6,6 C 6,6 C
06.11.2011 04:01 6,6 C 97 % 1010 hPa 0,0 l/m 0,0 km/h (0 Bft) NW 315 0 min 0 lux 0 min 6,2 C 6,6 C
06.11.2011 04:16 7,3 C 98 % 1010 hPa 0,0 l/m 14,5 km/h (3 Bft) N22.5 5 0 min 0 lux 0 min 7,0 C 2,1 C
06.11.2011 04:31 8,8 C 98 % 1010 hPa 0,0 l/m 19,1 km/h (3 Bft) N22.5 10 0 min 0 lux 0 min 8,5 C 2,1 C
06.11.2011 04:46 8,8 C 97 % 1010 hPa 0,0 l/m 12,5 km/h (3 Bft) N-NO67.5 25 0 min 0 lux 0 min 8,4 C 4,9 C
06.11.2011 05:00 9,2 C 97 % 1010 hPa 0,0 l/m 16,2 km/h (3 Bft) N-NO67.5 25 0 min 0 lux 0 min 8,7 C 3,7 C
06.11.2011 05:15 9,5 C 97 % 1010 hPa 0,0 l/m 14,5 km/h (3 Bft) N-NO22.5 15 0 min 0 lux 0 min 9,0 C 4,7 C
06.11.2011 05:30 9,3 C 96 % 1010 hPa 0,0 l/m 10,9 km/h (2 Bft) N-NO22.5 25 0 min 0 lux 0 min 8,7 C 6,3 C
06.11.2011 05:45 9,5 C 97 % 1010 hPa 0,0 l/m 15,2 km/h (3 Bft) N22.5 10 0 min 0 lux 0 min 9,0 C 4,4 C
06.11.2011 06:00 9,4 C 96 % 1010 hPa 0,0 l/m 10,5 km/h (2 Bft) N-NO22.5 30 0 min 0 lux 0 min 8,8 C 6,6 C
06.11.2011 06:15 9,0 C 96 % 1011 hPa 0,0 l/m 7,1 km/h (2 Bft) N-NO 25 0 min 0 lux 0 min 8,4 C 8,5 C
06.11.2011 06:30 8,9 C 97 % 1011 hPa 0,0 l/m 14,0 km/h (3 Bft) N-NO22.5 25 0 min 0 lux 0 min 8,4 C 4,3 C
06.11.2011 06:45 9,5 C 97 % 1011 hPa 0,0 l/m 19,4 km/h (3 Bft) N-NO22.5 25 0 min 0 lux 0 min 9,0 C 2,8 C
06.11.2011 07:00 9,8 C 96 % 1011 hPa 0,0 l/m 23,1 km/h (4 Bft) N-NO22.5 15 0 min 0 lux 0 min 9,2 C 2,1 C
06.11.2011 07:15 9,7 C 96 % 1011 hPa 0,0 l/m 20,0 km/h (4 Bft) N-NO22.5 25 0 min 42 lux 0 min 9,1 C 2,9 C
06.11.2011 07:30 9,5 C 96 % 1011 hPa 0,0 l/m 20,7 km/h (4 Bft) N-NO67.5 15 0 min 675 lux 0 min 8,9 C 2,4 C
06.11.2011 07:45 9,5 C 96 % 1011 hPa 0,0 l/m 20,7 km/h (4 Bft) N-NO22.5 15 0 min 1,48 klux 0 min 8,9 C 2,4 C
06.11.2011 08:00 9,4 C 96 % 1011 hPa 0,0 l/m 19,7 km/h (3 Bft) N-NO45 25 0 min 3,99 klux 0 min 8,8 C 2,6 C
06.11.2011 08:15 9,5 C 96 % 1011 hPa 0,0 l/m 17,1 km/h (3 Bft) N-NO22.5 25 0 min 6,27 klux 0 min 8,9 C 3,7 C
06.11.2011 08:30 9,6 C 96 % 1011 hPa 0,0 l/m 16,7 km/h (3 Bft) N-NO22.5 25 0 min 13,9 klux 0 min 9,0 C 4,0 C
06.11.2011 08:45 9,8 C 95 % 1011 hPa 0,0 l/m 19,7 km/h (3 Bft) N-NO45 25 0 min 13,8 klux 0 min 9,0 C 3,1 C
06.11.2011 09:00 9,9 C 94 % 1012 hPa 0,0 l/m 26,8 km/h (4 Bft) N-NO22.5 30 0 min 19,1 klux 0 min 9,0 C 1,2 C
06.11.2011 09:16 10,0 C 94 % 1012 hPa 0,0 l/m 20,5 km/h (4 Bft) NO67.5 35 0 min 15,4 klux 0 min 9,1 C 3,1 C
06.11.2011 09:31 10,0 C 94 % 1012 hPa 0,0 l/m 22,7 km/h (4 Bft) N-NO22.5 25 0 min 12,6 klux 0 min 9,1 C 2,5 C
06.11.2011 09:45 10,0 C 94 % 1012 hPa 0,0 l/m 24,8 km/h (4 Bft) N-NO22.5 25 0 min 13,0 klux 0 min 9,1 C 1,9 C
06.11.2011 10:00 10,0 C 94 % 1012 hPa 0,0 l/m 18,6 km/h (3 Bft) N-NO22.5 30 0 min 14,0 klux 0 min 9,1 C 3,8 C
06.11.2011 10:15 10,2 C 94 % 1012 hPa 0,0 l/m 20,5 km/h (4 Bft) N-NO22.5 25 0 min 16,3 klux 0 min 9,3 C 3,4 C
06.11.2011 10:30 10,4 C 93 % 1012 hPa 0,0 l/m 24,1 km/h (4 Bft) N-NO22.5 25 0 min 21,0 klux 0 min 9,3 C 2,6 C
06.11.2011 10:46 10,6 C 93 % 1012 hPa 0,0 l/m 24,8 km/h (4 Bft) N-NO22.5 20 0 min 19,7 klux 0 min 9,5 C 2,7 C
06.11.2011 11:01 10,8 C 92 % 1012 hPa 0,0 l/m 26,8 km/h (4 Bft) N-NO67.5 15 0 min 28,8 klux 0 min 9,6 C 2,5 C
06.11.2011 11:15 11,2 C 91 % 1013 hPa 0,0 l/m 28,0 km/h (4 Bft) N-NO22.5 25 0 min 30,9 klux 0 min 9,8 C 2,8 C
06.11.2011 11:30 11,1 C 91 % 1013 hPa 0,0 l/m 25,2 km/h (4 Bft) N-NO22.5 20 0 min 27,1 klux 0 min 9,7 C 3,3 C
06.11.2011 11:45 11,3 C 91 % 1013 hPa 0,0 l/m 22,0 km/h (4 Bft) N-NO45 25 15 min 42,6 klux 0 min 9,9 C 4,4 C
06.11.2011 12:00 11,5 C 90 % 1013 hPa 0,0 l/m 28,3 km/h (4 Bft) N-NO22.5 25 0 min 38,7 klux 0 min 9,9 C 3,1 C
06.11.2011 12:16 11,8 C 89 % 1013 hPa 0,0 l/m 25,1 km/h (4 Bft) N-NO45 25 16 min 46,9 klux 0 min 10,0 C 4,2 C
06.11.2011 12:31 12,4 C 86 % 1013 hPa 0,0 l/m 31,7 km/h (5 Bft) N-NO45 15 15 min 57,2 klux 0 min 10,1 C 3,7 C
06.11.2011 12:45 12,8 C 81 % 1012 hPa 0,0 l/m 29,5 km/h (5 Bft) N67.5 10 14 min 54,3 klux 0 min 9,6 C 4,7 C
06.11.2011 13:00 13,1 C 79 % 1012 hPa 0,0 l/m 29,1 km/h (5 Bft) N-NO22.5 25 15 min 50,7 klux 0 min 9,5 C 5,2 C
06.11.2011 13:15 13,2 C 74 % 1012 hPa 0,0 l/m 35,8 km/h (5 Bft) N-NO45 30 15 min 48,5 klux 0 min 8,7 C 4,2 C
06.11.2011 13:30 13,1 C 75 % 1012 hPa 0,0 l/m 32,9 km/h (5 Bft) NO45 35 15 min 45,2 klux 0 min 8,8 C 4,5 C
06.11.2011 13:46 13,1 C 74 % 1012 hPa 0,0 l/m 34,1 km/h (5 Bft) NO67.5 40 16 min 42,1 klux 0 min 8,6 C 4,3 C
06.11.2011 14:01 13,0 C 73 % 1012 hPa 0,0 l/m 32,2 km/h (5 Bft) NO45 35 15 min 42,6 klux 0 min 8,3 C 4,5 C
06.11.2011 14:15 12,9 C 75 % 1012 hPa 0,0 l/m 31,4 km/h (5 Bft) N-NO22.5 25 0 min 39,3 klux 0 min 8,6 C 4,5 C
06.11.2011 14:30 12,6 C 76 % 1012 hPa 0,0 l/m 27,9 km/h (4 Bft) N-NO45 30 0 min 38,6 klux 0 min 8,5 C 4,7 C
06.11.2011 14:45 12,4 C 77 % 1012 hPa 0,0 l/m 29,2 km/h (5 Bft) NO67.5 35 0 min 12,6 klux 0 min 8,5 C 4,2 C
06.11.2011 15:00 12,4 C 78 % 1013 hPa 0,0 l/m 23,0 km/h (4 Bft) N-NO22.5 25 0 min 32,2 klux 0 min 8,7 C 5,6 C
06.11.2011 15:16 12,4 C 79 % 1013 hPa 0,0 l/m 19,7 km/h (3 Bft) N-NO45 15 0 min 11,2 klux 0 min 8,9 C 6,5 C
06.11.2011 15:30 12,1 C 80 % 1013 hPa 0,0 l/m 20,3 km/h (4 Bft) NO22.5 40 0 min 13,8 klux 0 min 8,8 C 5,9 C
06.11.2011 15:44 11,8 C 81 % 1013 hPa 0,0 l/m 25,1 km/h (4 Bft) N67.5 10 0 min 14,3 klux 0 min 8,6 C 4,2 C
06.11.2011 16:00 11,5 C 82 % 1013 hPa 0,0 l/m 24,7 km/h (4 Bft) N22.5 10 0 min 13,5 klux 0 min 8,5 C 3,9 C
06.11.2011 16:15 11,2 C 83 % 1013 hPa 0,0 l/m 25,0 km/h (4 Bft) N67.5 10 0 min 12,4 klux 0 min 8,4 C 3,5 C
06.11.2011 16:30 10,6 C 85 % 1013 hPa 0,0 l/m 20,8 km/h (4 Bft) N-NO22.5 25 0 min 7,54 klux 0 min 8,2 C 3,8 C
06.11.2011 16:45 9,6 C 86 % 1013 hPa 0,0 l/m 22,7 km/h (4 Bft) N-NO22.5 30 0 min 3,03 klux 0 min 7,4 C 1,9 C
06.11.2011 17:00 9,2 C 88 % 1014 hPa 0,0 l/m 15,9 km/h (3 Bft) N22.5 10 0 min 1,08 klux 0 min 7,3 C 3,8 C
06.11.2011 17:14 8,8 C 91 % 1014 hPa 0,0 l/m 27,8 km/h (4 Bft) N22.5 10 0 min 234 lux 0 min 7,4 C -0,5 C
06.11.2011 17:30 8,5 C 91 % 1014 hPa 0,0 l/m 25,0 km/h (4 Bft) N-NO22.5 15 0 min 44 lux 0 min 7,1 C -0,2 C
06.11.2011 17:45 8,4 C 93 % 1014 hPa 0,0 l/m 26,6 km/h (4 Bft) N-NO22.5 25 0 min 1 lux 0 min 7,3 C -0,8 C
06.11.2011 18:00 8,2 C 94 % 1014 hPa 0,0 l/m 25,1 km/h (4 Bft) N-NO22.5 20 0 min 0 lux 0 min 7,3 C -0,6 C
06.11.2011 18:15 8,0 C 94 % 1014 hPa 0,0 l/m 24,3 km/h (4 Bft) N-NO22.5 15 0 min 0 lux 0 min 7,1 C -0,7 C
06.11.2011 18:30 7,8 C 95 % 1014 hPa 0,0 l/m 24,1 km/h (4 Bft) N-NO22.5 15 0 min 0 lux 0 min 7,0 C -0,9 C
06.11.2011 18:44 7,7 C 95 % 1014 hPa 0,0 l/m 26,3 km/h (4 Bft) N-NO22.5 25 0 min 0 lux 0 min 7,0 C -1,6 C
06.11.2011 19:00 7,6 C 96 % 1014 hPa 0,0 l/m 24,6 km/h (4 Bft) N-NO45 20 0 min 0 lux 0 min 7,0 C -1,3 C
06.11.2011 19:15 7,6 C 96 % 1014 hPa 0,0 l/m 21,1 km/h (4 Bft) N-NO45 20 0 min 0 lux 0 min 7,0 C -0,2 C
06.11.2011 19:30 7,5 C 96 % 1014 hPa 0,0 l/m 17,1 km/h (3 Bft) N-NO22.5 20 0 min 0 lux 0 min 6,9 C 1,2 C
06.11.2011 19:45 7,4 C 97 % 1014 hPa 0,0 l/m 18,0 km/h (3 Bft) N-NO22.5 30 0 min 0 lux 0 min 7,0 C 0,7 C
06.11.2011 20:00 7,4 C 97 % 1014 hPa 0,0 l/m 18,5 km/h (3 Bft) N-NO67.5 30 0 min 0 lux 0 min 7,0 C 0,5 C
06.11.2011 20:14 7,2 C 97 % 1014 hPa 0,0 l/m 23,5 km/h (4 Bft) N-NO22.5 25 0 min 0 lux 0 min 6,8 C -1,5 C
06.11.2011 20:30 7,2 C 97 % 1014 hPa 0,0 l/m 22,3 km/h (4 Bft) N-NO22.5 20 0 min 0 lux 0 min 6,8 C -1,1 C
06.11.2011 20:45 7,1 C 97 % 1014 hPa 0,0 l/m 20,6 km/h (4 Bft) N22.5 10 0 min 0 lux 0 min 6,7 C -0,7 C
06.11.2011 21:00 7,1 C 98 % 1014 hPa 0,0 l/m 25,8 km/h (4 Bft) N-NO22.5 30 0 min 0 lux 0 min 6,8 C -2,3 C
06.11.2011 21:15 6,8 C 98 % 1015 hPa 0,0 l/m 27,0 km/h (4 Bft) N-NO22.5 30 0 min 0 lux 0 min 6,5 C -3,1 C
06.11.2011 21:30 6,8 C 98 % 1015 hPa 0,0 l/m 21,2 km/h (4 Bft) N-NO22.5 30 0 min 0 lux 0 min 6,5 C -1,3 C
06.11.2011 21:44 6,6 C 98 % 1015 hPa 0,0 l/m 24,1 km/h (4 Bft) N22.5 5 0 min 0 lux 0 min 6,3 C -2,5 C
06.11.2011 22:00 6,5 C 98 % 1015 hPa 0,0 l/m 17,6 km/h (3 Bft) N-NO22.5 25 0 min 0 lux 0 min 6,2 C -0,3 C
06.11.2011 22:15 6,4 C 98 % 1015 hPa 0,0 l/m 23,4 km/h (4 Bft) NO22.5 35 0 min 0 lux 0 min 6,1 C -2,5 C
06.11.2011 22:30 6,3 C 99 % 1015 hPa 0,0 l/m 19,8 km/h (3 Bft) N-NO22.5 30 0 min 0 lux 0 min 6,2 C -1,4 C
06.11.2011 22:45 6,3 C 99 % 1015 hPa 0,0 l/m 15,6 km/h (3 Bft) N-NO22.5 30 0 min 0 lux 0 min 6,2 C 0,4 C
06.11.2011 23:00 6,1 C 99 % 1015 hPa 0,0 l/m 19,1 km/h (3 Bft) N-NO22.5 25 0 min 0 lux 0 min 6,0 C -1,4 C
06.11.2011 23:14 6,0 C 99 % 1015 hPa 0,0 l/m 19,8 km/h (3 Bft) N67.5 5 0 min 0 lux 0 min 5,9 C -1,8 C
06.11.2011 23:30 6,0 C 99 % 1015 hPa 0,0 l/m 18,5 km/h (3 Bft) N-NO67.5 25 0 min 0 lux 0 min 5,9 C -1,3 C
06.11.2011 23:45 5,9 C 99 % 1015 hPa 0,0 l/m 22,8 km/h (4 Bft) N-NO22.5 15 0 min 0 lux 0 min 5,8 C -3,0 C
06.11.2011 23:54 5,8 C 99 % 1015 hPa 0,0 l/m 18,4 km/h (3 Bft) N-NO22.5 20 0 min 0 lux 0 min 5,7 C -1,5 C
_ Min-Zeit 01:31 14:01 00:01 - 00:01 - - - - - 01:31 21:15
Minimum _ 3,7 C 73 % 1009 hPa - 0,0 km/h (0 Bft) - - - - - 3,0 C -3,1 C
_ Max-Zeit 13:15 22:30 21:15 00:01 13:15 - - 12:16 12:31 00:01 12:31 06:15
Maximum _ 13,2 C 99 % 1015 hPa 0,0 l/m 35,8 km/h
N-NO (5 Bft)
- - 16 min 57,2 klux 0 min 10,1 C 8,5 C
Durchschnitt _ 8,7 C 92 % 1012 hPa #0,0 l/m 18,7 km/h (3 Bft) N-NO - #2:16 h 9,7 klux #0 min. 7,5 C 2,6 C